Home   Weather   Longueuil   Past weeks
Flag for Canada

Past Weather in Longueuil, Quebec, Canada — Yesterday and Last 2 Weeks

Now
39 °F

Chilly.


Feels Like: 37 °F
Forecast: 49 / 31 °F
Wind: 3 mph from Northeast

Location: Mc Tavish

Current Time: Apr 7, 2020 at 4:03:33 am

Latest Report: Apr 7, 2020 at 3:00 am


Visibility: N/A

Pressure: 29.91 "Hg

Humidity: 46%

Dew Point: 20 °F

Location of LongueuilLocation

Past Weather in Longueuil — Graph

°F

Longueuil Temperature Yesterday

Maximum temperature yesterday: 55 °F (at 4:00 pm)
Minimum temperature yesterday: 36 °F (at 6:00 am)
Average temperature yesterday: 45 °F

High & Low Weather Summary for the Past Weeks

 TemperatureHumidityPressure
High55 °F (Apr 6, 4:00 pm)100% (Mar 30, 11:00 pm)30.59 "Hg (Mar 30, 11:00 pm)
Low23 °F (Mar 23, 3:00 am)20% (Apr 6, 6:00 pm)29.66 "Hg (Mar 26, 9:00 pm)
Average40 °F69%30.01 "Hg
* Reported Mar 23 3:00 am — Apr 7 3:00 am, Longueuil. Weather by CustomWeather, © 2020

Note: Actual official high and low records may vary slightly from our data, if they occured in-between our weather recording intervals... More about our weather records

Longueuil Weather History for the Previous 24 Hours

Scroll right to see more
 ConditionsComfort  
Time TempWeatherWind HumidityBarometerVisibility
3:00 am
Tue, Apr 7
39 °FChilly.3 mph46%29.91 "HgN/A
2:00 am43 °FQuite cool.2 mph35%29.89 "HgN/A
1:00 am44 °FQuite cool.3 mph34%29.90 "HgN/A
12:00 am44 °FQuite cool.3 mph40%29.90 "HgN/A
11:00 pm
Mon, Apr 6
46 °FCool.3 mph37%29.89 "HgN/A
10:00 pm47 °FCool.2 mph36%29.89 "HgN/A
9:00 pm46 °FCool.1 mph38%29.89 "HgN/A
8:00 pm50 °FCool.1 mph27%29.87 "HgN/A
7:00 pm52 °FCool.2 mph23%29.87 "HgN/A
6:00 pm54 °FCool.3 mph20%29.87 "HgN/A
5:00 pm54 °FCool.5 mph25%29.87 "HgN/A
4:00 pm55 °FRefreshingly cool.5 mph23%29.89 "HgN/A
3:00 pm53 °FCool.6 mph26%29.92 "HgN/A
2:00 pm52 °FCool.7 mph26%29.95 "HgN/A
1:00 pm50 °FCool.7 mph41%29.98 "HgN/A
12:00 pm48 °FCool.5 mph35%30.01 "HgN/A
11:00 am46 °FCool.3 mph40%30.04 "HgN/A
10:00 am42 °FQuite cool.5 mph48%30.05 "HgN/A
9:00 am42 °FQuite cool.3 mph47%30.06 "HgN/A
8:00 am39 °FChilly.6 mph52%30.07 "HgN/A
7:00 am38 °FChilly.5 mph55%30.06 "HgN/A
6:00 am36 °FChilly.5 mph62%30.05 "HgN/A
5:00 am37 °FChilly.3 mph61%30.05 "HgN/A
4:00 am38 °FChilly.2 mph59%30.04 "HgN/A
Weather by CustomWeather, © 2020

See weather overview

Advertising